Weather History for KEWK - January, 2013

Change the Weather History Date:

Thursday, January 31, 2013

  Actual Average Record
Temperature  
Mean Temperature 18 °F -  
Max Temperature 26 °F 38 °F 69 °F (2009)
Min Temperature 10 °F 22 °F 10 °F (2000)
Degree Days  
Heating Degree Days 47    
Moisture  
Dew Point 11 °F    
Average Humidity 66    
Maximum Humidity 80    
Minimum Humidity 49    
Precipitation  
Precipitation 0.00 in - - ()
Sea Level Pressure  
Sea Level Pressure 30.18 in    
Wind  
Wind Speed 12 mph (NNW)    
Max Wind Speed 26 mph    
Max Gust Speed 33 mph    
Visibility 10 miles    
Events      
Averages and records for this station are not official NWS values.
T = Trace of Precipitation, MM = Missing Value Source: NWS Daily Summary

Daily Weather History Graph

Daily Weather History Graph

Search for Another Location

Airport or City:

Trip Planner

Search our weather history database for the weather conditions in past years. The results will help you decide how hot, cold, wet, or windy it might be!

Date:

Astronomy

Jan. 31, 2013 Rise Set
Actual Time 7:34 AM CST 5:51 PM CST
Civil Twilight 7:06 AM CST 6:19 PM CST
Nautical Twilight 6:34 AM CST 6:50 PM CST
Astronomical Twilight 6:03 AM CST 7:21 PM CST
Moon 10:49 PM CST (1/31) 9:39 AM CST (1/31)
Length of Visible Light 11h 12m
Length of Day
10h 17m
Waning Gibbous, 79% of the Moon is Illuminated
Jan 31
Waning Gibbous
Feb 3
Last Quarter
Feb 10
New
Feb 17
First Quarter
Feb 25
Full

Hourly Weather History & Observations

Time (CST) Temp. Windchill Dew Point Humidity Pressure Visibility Wind Dir Wind Speed Gust Speed Precip Events Conditions
12:15 AM 21.2 °F 9.5 °F 15.8 °F 80% 29.95 in 10.0 mi SSW 11.5 mph - N/A   Clear
12:35 AM 21.2 °F 10.1 °F 14.0 °F 74% 29.95 in 10.0 mi SSW 10.4 mph - N/A   Clear
12:55 AM 21.2 °F 10.1 °F 14.0 °F 74% 29.96 in 10.0 mi SSW 10.4 mph - N/A   Clear
1:15 AM 21.2 °F 10.1 °F 14.0 °F 74% 29.96 in 10.0 mi SW 10.4 mph - N/A   Clear
1:35 AM 21.2 °F 10.1 °F 14.0 °F 74% 29.95 in 10.0 mi SW 10.4 mph - N/A   Clear
1:55 AM 21.2 °F 9.5 °F 14.0 °F 74% 29.95 in 10.0 mi SW 11.5 mph - N/A   Clear
2:15 AM 21.2 °F 10.9 °F 14.0 °F 74% 29.95 in 10.0 mi SW 9.2 mph - N/A   Clear
2:35 AM 21.2 °F 10.9 °F 14.0 °F 74% 29.96 in 10.0 mi SW 9.2 mph - N/A   Clear
2:55 AM 21.2 °F 10.1 °F 14.0 °F 74% 29.96 in 10.0 mi SW 10.4 mph - N/A   Clear
3:15 AM 21.2 °F 10.1 °F 14.0 °F 74% 29.96 in 10.0 mi SW 10.4 mph - N/A   Clear
3:35 AM 21.2 °F 10.9 °F 14.0 °F 74% 29.95 in 10.0 mi WSW 9.2 mph - N/A   Clear
3:55 AM 21.2 °F 11.7 °F 14.0 °F 74% 29.96 in 10.0 mi WSW 8.1 mph - N/A   Clear
4:15 AM 21.2 °F 10.9 °F 14.0 °F 74% 29.96 in 10.0 mi West 9.2 mph - N/A   Clear
4:35 AM 23.0 °F 13.9 °F 15.8 °F 74% 29.96 in 10.0 mi West 8.1 mph - N/A   Clear
4:55 AM 24.8 °F 16.1 °F 15.8 °F 69% 29.97 in 10.0 mi West 8.1 mph - N/A   Clear
5:15 AM 24.8 °F 16.9 °F 15.8 °F 69% 29.96 in 10.0 mi West 6.9 mph - N/A   Clear
5:35 AM 24.8 °F 16.9 °F 15.8 °F 69% 29.97 in 10.0 mi West 6.9 mph - N/A   Clear
5:55 AM 24.8 °F 16.9 °F 15.8 °F 69% 29.97 in 10.0 mi West 6.9 mph - N/A   Clear
6:15 AM 24.8 °F 16.9 °F 15.8 °F 69% 29.97 in 10.0 mi WNW 6.9 mph - N/A   Clear
6:35 AM 24.8 °F 16.9 °F 15.8 °F 69% 29.99 in 10.0 mi WNW 6.9 mph - N/A   Clear
6:55 AM 24.8 °F 16.1 °F 15.8 °F 69% 29.99 in 10.0 mi NNW 8.1 mph - N/A   Clear
7:15 AM 23.0 °F 13.9 °F 15.8 °F 74% 30.01 in 10.0 mi NNW 8.1 mph - N/A   Mostly Cloudy
7:35 AM 26.6 °F 16.2 °F 19.4 °F 74% 30.02 in 10.0 mi North 11.5 mph - N/A   Overcast
7:55 AM 24.8 °F 14.0 °F 17.6 °F 74% 30.04 in 10.0 mi North 11.5 mph - N/A   Overcast
8:15 AM 24.8 °F 13.4 °F 17.6 °F 74% 30.05 in 10.0 mi North 12.7 mph - N/A   Overcast
8:35 AM 23.0 °F 10.1 °F 15.8 °F 74% 30.05 in 10.0 mi North 15.0 mph - N/A   Mostly Cloudy
8:55 AM 23.0 °F 10.6 °F 15.8 °F 74% 30.07 in 10.0 mi NNE 13.8 mph - N/A   Partly Cloudy
9:15 AM 23.0 °F 11.7 °F 15.8 °F 74% 30.09 in 10.0 mi NNE 11.5 mph - N/A   Clear
9:35 AM 24.8 °F 11.5 °F 17.6 °F 74% 30.13 in 10.0 mi North 17.3 mph - N/A   Clear
9:55 AM 24.8 °F 11.1 °F 15.8 °F 69% 30.14 in 10.0 mi North 18.4 mph - N/A   Clear
10:15 AM 24.8 °F 11.1 °F 15.8 °F 69% 30.17 in 10.0 mi North 18.4 mph - N/A   Clear
10:35 AM 24.8 °F 11.1 °F 15.8 °F 69% 30.17 in 10.0 mi North 18.4 mph - N/A   Partly Cloudy
10:55 AM 24.8 °F 11.5 °F 15.8 °F 69% 30.19 in 10.0 mi North 17.3 mph - N/A   Partly Cloudy
11:15 AM 24.8 °F 12.4 °F 15.8 °F 69% 30.21 in 10.0 mi North 15.0 mph - N/A   Clear
11:35 AM 24.8 °F 11.9 °F 15.8 °F 69% 30.23 in 10.0 mi North 16.1 mph - N/A   Mostly Cloudy
11:55 AM 24.8 °F 14.0 °F 15.8 °F 69% 30.23 in 10.0 mi North 11.5 mph - N/A   Overcast
12:15 PM 24.8 °F 11.1 °F 15.8 °F 69% 30.24 in 10.0 mi North 18.4 mph 23.0 mph N/A   Overcast
12:35 PM 24.8 °F 9.0 °F 15.8 °F 69% 30.25 in 10.0 mi North 25.3 mph 29.9 mph N/A   Overcast
12:55 PM 23.0 °F 6.9 °F 14.0 °F 68% 30.25 in 10.0 mi North 24.2 mph 29.9 mph N/A   Overcast
1:15 PM 23.0 °F 6.3 °F 14.0 °F 68% 30.26 in 10.0 mi North 26.5 mph 29.9 mph N/A   Mostly Cloudy
1:35 PM 23.0 °F 6.6 °F 12.2 °F 63% 30.26 in 10.0 mi North 25.3 mph 32.2 mph N/A   Scattered Clouds
2:15 PM 24.8 °F 9.3 °F 10.4 °F 54% 30.27 in 10.0 mi North 24.2 mph 29.9 mph N/A   Partly Cloudy
2:35 PM 24.8 °F 9.3 °F 10.4 °F 54% 30.27 in 10.0 mi North 24.2 mph 32.2 mph N/A   Clear
2:55 PM 23.0 °F 6.6 °F 8.6 °F 54% 30.28 in 10.0 mi North 25.3 mph 33.4 mph N/A   Clear
3:15 PM 23.0 °F 8.0 °F 8.6 °F 54% 30.29 in 10.0 mi North 20.7 mph 27.6 mph N/A   Clear
3:35 PM 23.0 °F 7.6 °F 8.6 °F 54% 30.30 in 10.0 mi NNW 21.9 mph 28.8 mph N/A   Clear
3:55 PM 21.2 °F 5.6 °F 6.8 °F 54% 30.31 in 10.0 mi North 20.7 mph 26.5 mph N/A   Clear
4:15 PM 21.2 °F 5.2 °F 6.8 °F 54% 30.30 in 10.0 mi North 21.9 mph 26.5 mph N/A   Clear
4:35 PM 21.2 °F 6.4 °F 6.8 °F 54% 30.32 in 10.0 mi North 18.4 mph 23.0 mph N/A   Clear
4:55 PM 19.4 °F 5.5 °F 5.0 °F 54% 30.34 in 10.0 mi North 15.0 mph 23.0 mph N/A   Clear
5:15 PM 19.4 °F 4.1 °F 3.2 °F 49% 30.34 in 10.0 mi North 18.4 mph 27.6 mph N/A   Clear
5:35 PM 19.4 °F 4.1 °F 3.2 °F 49% 30.34 in 10.0 mi North 18.4 mph 21.9 mph N/A   Clear
6:15 PM 17.6 °F 5.0 °F 1.4 °F 49% 30.36 in 10.0 mi North 11.5 mph - N/A   Clear
6:35 PM 15.8 °F 4.2 °F 1.4 °F 53% 30.36 in 10.0 mi North 9.2 mph - N/A   Clear
6:55 PM 15.8 °F 8.6 °F 1.4 °F 53% 30.39 in 10.0 mi NNW 4.6 mph - N/A   Clear
7:15 PM 12.2 °F 2.9 °F 1.4 °F 62% 30.41 in 10.0 mi North 5.8 mph - N/A   Clear
7:35 PM 12.2 °F 2.9 °F 1.4 °F 62% 30.41 in 10.0 mi North 5.8 mph - N/A   Clear
7:55 PM 12.2 °F 1.7 °F 3.2 °F 67% 30.43 in 10.0 mi NNW 6.9 mph - N/A   Clear
8:15 PM 10.4 °F 0.8 °F 1.4 °F 67% 30.42 in 10.0 mi North 5.8 mph - N/A   Clear
8:35 PM 12.2 °F 2.9 °F 3.2 °F 67% 30.43 in 10.0 mi North 5.8 mph - N/A   Clear
8:55 PM 12.2 °F 6.1 °F 3.2 °F 67% 30.43 in 10.0 mi NE 3.5 mph - N/A   Clear
9:15 PM 14.0 °F 5.1 °F 3.2 °F 62% 30.42 in 10.0 mi NE 5.8 mph - N/A   Clear
9:35 PM 14.0 °F 5.1 °F 3.2 °F 62% 30.42 in 10.0 mi NNE 5.8 mph - N/A   Clear
10:15 PM 12.2 °F 6.1 °F 3.2 °F 67% 30.43 in 10.0 mi NE 3.5 mph - N/A   Scattered Clouds
10:35 PM 14.0 °F 6.5 °F 3.2 °F 62% 30.43 in 10.0 mi NE 4.6 mph - N/A   Overcast
10:55 PM 14.0 °F 8.2 °F 3.2 °F 62% 30.42 in 10.0 mi ENE 3.5 mph - N/A   Mostly Cloudy
11:15 PM 14.0 °F 6.5 °F 3.2 °F 62% 30.42 in 10.0 mi East 4.6 mph - N/A   Clear
11:35 PM 15.8 °F 6.1 °F 6.8 °F 68% 30.41 in 10.0 mi East 6.9 mph - N/A   Mostly Cloudy